Theta_e
321 317 315 316 305 305 302 305 307 305 304 311 317 315 314 320 318 313 332 335 339 340 347 348 348 351 352 351 351 351 350 350 349 348 347 345 344 342 341 340 342 340 340 340 337 336 334 334 336
315 313 314 312 302 299 300 306 304 306 311 313 316 314 311 316 328 329 331 337 340 342 346 346 346 350 351 351 350 350 349 349 348 347 345 343 342 341 340 340 339 339 340 339 339 337 333 332 332
316 314 311 305 302 298 298 304 306 310 315 314 314 316 314 320 328 330 336 336 341 342 344 345 346 349 350 350 349 349 348 348 346 344 343 342 341 340 340 340 340 338 338 335 337 338 334 334 334
309 310 310 300 299 302 299 303 308 308 313 312 312 310 322 330 329 335 336 337 338 340 343 343 347 349 349 348 347 348 348 347 347 346 344 343 341 341 339 339 340 342 339 336 336 337 335 336 337
313 308 296 296 298 302 300 308 306 307 312 310 309 310 317 329 336 337 333 337 336 339 342 344 345 347 347 347 347 347 348 347 347 346 345 345 343 340 338 339 341 341 339 336 335 335 335 336 337
303 304 294 292 297 301 301 307 306 307 309 309 308 309 317 331 333 335 334 335 338 341 343 343 339 342 344 346 346 346 347 346 346 345 345 344 342 340 338 338 338 337 335 333 333 334 335 336 336
304 297 293 295 296 298 300 305 303 306 306 307 308 305 317 326 333 337 335 335 336 342 342 342 343 340 337 340 341 342 344 344 343 344 343 341 340 340 339 338 338 336 334 333 334 336 336 335 336
304 300 294 293 293 295 302 302 306 305 306 310 312 303 309 326 335 336 336 336 335 337 339 340 340 340 341 340 334 336 339 339 340 339 337 335 335 336 335 333 335 338 337 337 337 337 336 335 335
308 295 292 294 295 298 303 300 304 305 304 305 310 310 320 331 334 333 331 333 334 335 338 339 338 336 337 338 335 331 332 333 334 334 331 328 333 335 332 332 335 336 336 336 336 336 336 334 331
300 293 295 300 300 299 303 301 303 301 302 303 306 311 317 329 330 329 329 328 330 332 335 338 337 337 338 338 337 337 338 336 336 336 335 335 336 336 336 330 329 331 331 332 334 335 333 329 328
299 295 299 299 302 302 301 299 301 298 299 303 303 307 311 321 326 329 329 329 329 333 334 336 337 337 337 337 338 336 337 336 336 336 336 336 336 335 335 335 333 333 324 332 333 332 331 330 330
295 300 299 302 302 301 298 300 299 299 300 302 301 304 309 311 319 323 326 328 331 332 334 336 337 337 337 336 336 336 334 332 321 316 323 331 330 330 330 330 330 329 328 325 325 325 329 329 331
297 297 299 300 300 298 299 297 297 299 303 304 303 302 300 306 309 315 319 324 332 331 333 334 337 336 336 334 333 326 323 317 312 309 310 312 312 311 310 310 310 309 310 310 312 314 315 316 319
297 297 298 298 298 299 296 296 296 299 302 302 302 300 299 300 301 303 309 315 326 332 331 333 334 333 334 330 325 320 314 310 310 309 308 309 309 307 307 307 307 306 307 308 307 306 306 307 309
298 292 296 296 297 295 295 291 292 299 299 298 298 298 298 300 301 301 303 311 322 330 331 332 325 329 325 317 314 311 309 309 307 307 307 306 305 304 303 304 303 305 304 305 306 306 307 306 307
292 292 289 294 295 293 292 289 295 298 296 295 296 296 297 298 299 298 301 308 316 327 326 319 316 317 315 313 310 307 307 306 304 303 303 304 305 304 302 302 302 303 303 302 302 302 302 302 303
290 285 288 292 294 292 290 290 293 296 295 294 295 295 296 297 297 298 301 306 313 321 318 312 312 309 309 308 307 306 304 302 301 301 302 303 304 304 302 302 302 303 302 302 303 302 302 301 301
287 285 289 289 290 291 289 288 294 294 294 294 294 295 296 297 297 298 301 306 312 318 311 310 309 306 306 303 304 302 300 299 300 301 301 302 302 302 301 301 301 302 301 301 301 300 301 300 300
293 289 289 292 291 290 289 290 293 295 293 293 293 295 297 297 298 299 299 303 307 311 305 306 307 305 302 300 299 298 297 298 299 300 301 301 301 302 300 300 300 300 300 299 300 300 299 299 300
289 286 286 293 291 289 289 290 294 296 296 295 295 295 296 297 295 295 295 296 304 307 303 302 303 303 300 299 299 298 298 298 299 300 300 301 300 300 300 298 298 298 298 298 298 298 297 297 299
289 286 286 287 289 289 285 286 289 294 296 297 298 297 296 295 295 294 295 296 300 302 301 301 300 300 300 299 298 298 298 298 297 298 299 299 300 299 298 297 297 297 297 296 296 296 295 293 295
285 291 291 290 284 280 286 278 289 293 292 294 295 292 291 293 294 294 295 295 298 299 297 297 297 297 298 298 297 296 296 295 295 296 297 298 299 298 298 297 296 296 296 295 295 296 294 294 292
288 290 289 288 283 280 282 277 285 292 291 291 292 292 291 292 293 293 294 296 298 296 295 295 297 298 298 299 298 296 295 296 296 296 296 297 297 297 297 296 295 294 294 294 294 293 293 294 295
291 287 286 284 281 272 281 281 285 288 291 293 293 293 292 292 292 293 295 297 295 295 295 296 297 296 297 297 297 296 295 295 295 294 294 294 294 295 295 296 294 294 293 291 291 292 292 293 294
289 285 279 277 272 275 285 280 286 292 293 292 293 291 291 291 291 292 294 294 294 294 295 296 296 295 296 296 296 296 295 294 294 294 293 292 292 293 293 293 293 292 292 291 291 291 290 291 292
284 285 281 276 277 277 280 277 286 291 289 291 292 291 291 291 292 293 293 294 294 295 295 295 295 295 295 295 295 295 295 294 294 293 293 292 292 292 292 292 292 293 293 292 293 293 293 292 292
284 280 287 281 278 276 279 282 288 288 287 287 289 289 289 290 291 292 293 294 294 294 294 295 294 294 295 295 295 294 294 294 293 293 293 292 292 293 292 292 292 292 292 292 294 293 293 293 293
287 287 279 281 275 275 278 279 283 283 285 287 287 287 289 290 291 291 293 293 293 294 294 295 295 294 295 295 294 294 294 293 293 292 292 292 292 292 292 292 292 291 291 291 292 293 293 292 292
282 281 283 284 281 278 277 277 285 284 287 286 287 288 289 290 291 291 292 292 293 293 294 294 293 294 294 294 293 293 293 293 293 292 292 291 292 291 291 290 290 289 289 290 291 291 291 290 291
284 283 283 278 277 280 280 277 288 287 289 289 288 289 289 290 290 291 291 292 291 291 293 292 292 293 293 293 293 293 293 292 292 291 291 291 290 290 290 289 289 288 288 289 289 289 290 289 289
Wind_Speed
14 10 4 3 2 4 9 10 4 2 2 5 8 6 7 11 7 6 6 5 19 17 15 14 15 14 15 15 14 13 14 14 14 13 13 12 11 10 9 8 6 5 5 9 8 8 7 7 6
6 8 2 4 3 6 6 7 6 5 7 7 5 1 1 6 8 8 8 5 17 16 14 13 13 14 16 15 14 13 12 12 13 12 11 10 10 9 7 6 4 3 9 8 6 6 5 5 6
8 7 3 4 4 8 4 5 8 9 7 6 5 3 5 4 10 9 10 10 16 16 14 13 12 13 16 16 15 14 13 11 10 10 9 8 7 7 6 3 3 3 7 6 7 7 5 3 2
3 2 4 3 9 9 2 3 9 7 4 6 2 8 6 7 3 9 9 13 14 16 14 16 13 14 13 13 14 14 12 11 11 10 9 8 7 6 4 3 2 6 5 7 7 6 2 2 2
3 4 4 6 11 11 3 8 2 8 7 6 2 7 7 5 11 12 9 12 11 13 14 15 13 14 14 13 13 13 11 10 10 10 9 7 9 6 6 5 7 6 6 4 4 4 2 2 4
2 2 4 8 10 8 5 8 4 5 9 6 3 5 5 9 8 10 9 11 10 15 14 13 12 12 13 13 13 12 10 9 9 10 9 8 8 7 7 6 6 6 4 2 2 2 2 4 5
3 3 6 8 7 6 5 5 4 7 6 6 2 1 6 8 9 10 9 9 9 15 12 12 9 10 10 10 10 11 10 10 10 9 9 8 7 7 6 5 4 4 3 2 1 1 2 3 5
3 3 6 4 5 1 6 1 6 5 2 3 5 1 7 10 9 8 8 9 8 10 12 11 10 9 8 7 10 9 10 9 9 8 8 7 7 7 6 5 5 4 3 2 2 3 4 4 5
2 3 5 7 6 4 6 3 3 5 3 1 4 6 6 12 10 7 6 7 8 7 13 10 10 9 8 9 8 7 7 7 6 6 6 5 4 6 7 6 8 5 3 3 4 5 6 6 7
4 3 4 6 6 4 5 3 5 3 5 5 5 7 4 9 7 9 8 8 8 7 10 10 8 8 9 8 9 7 6 4 5 5 6 4 5 3 4 6 5 3 3 5 7 8 9 6 4
6 4 4 4 7 8 5 1 0 3 6 7 12 12 9 7 8 9 9 8 7 9 5 8 7 7 9 8 6 3 3 3 3 2 3 3 2 2 3 3 2 2 4 2 2 4 4 6 4
4 8 5 3 5 3 2 5 5 6 6 5 8 3 11 10 9 9 9 10 12 9 9 8 10 7 8 4 4 5 4 4 4 5 5 4 3 3 2 0 1 2 2 1 3 3 5 6 5
5 6 1 5 4 7 4 5 6 10 9 6 7 5 1 9 8 7 7 8 14 13 10 9 11 9 6 6 4 6 5 5 5 5 5 2 4 3 2 3 4 4 4 3 3 4 5 5 5
6 7 5 6 7 6 3 5 3 7 11 12 5 8 8 7 7 6 7 6 11 14 11 8 7 7 6 7 8 5 5 6 5 5 5 6 4 4 4 4 4 4 4 5 5 5 5 5 5
3 5 7 11 7 3 3 6 15 13 6 6 6 4 5 8 8 8 7 7 6 11 10 8 7 7 8 9 7 5 5 6 5 5 6 6 6 5 4 3 3 3 4 5 4 5 4 4 5
3 3 4 5 10 4 5 7 2 7 11 9 9 8 8 8 7 8 7 8 6 9 13 10 6 8 9 8 7 5 5 5 5 5 5 7 6 6 5 3 3 3 3 3 3 3 4 4 4
6 5 7 2 7 5 9 6 3 4 7 8 9 8 8 8 9 8 8 8 8 12 14 11 8 10 9 8 8 6 7 5 5 5 5 6 6 6 4 3 3 3 3 3 3 3 3 4 4
7 5 6 9 7 5 6 13 8 7 8 8 8 9 9 9 9 9 9 7 7 12 12 13 10 10 9 6 7 6 5 4 5 5 5 6 5 5 4 3 4 4 3 4 4 5 4 3 4
6 3 7 2 4 5 9 12 13 8 10 10 10 9 9 9 7 6 9 8 6 12 10 9 14 10 7 5 6 5 5 4 4 5 6 7 5 5 4 4 4 4 4 4 4 3 4 4 4
11 8 8 7 6 3 6 12 11 11 10 13 14 12 11 9 7 2 4 5 7 10 12 9 9 11 7 5 4 4 5 4 5 4 6 5 5 5 4 4 4 5 3 5 4 5 3 3 3
8 9 5 7 2 5 5 11 11 13 20 16 12 8 6 9 10 9 8 7 8 9 10 10 9 8 7 8 6 5 6 4 3 3 4 3 4 3 4 4 3 4 3 3 3 3 4 3 4
8 4 10 6 5 5 3 9 6 5 6 8 9 7 7 6 5 9 9 8 8 8 9 9 8 9 8 8 7 7 4 4 3 4 3 3 4 4 4 4 4 3 3 4 3 4 3 3 4
4 3 3 4 3 5 5 2 6 11 13 9 11 9 10 9 9 9 9 9 8 9 8 9 9 8 8 8 8 6 7 5 4 4 4 3 3 4 3 3 2 3 3 5 6 5 5 3 4
8 6 5 3 5 1 11 9 18 13 13 9 9 12 10 10 9 9 9 10 9 8 8 8 9 7 8 8 8 9 9 6 5 4 3 3 2 2 2 3 2 1 3 3 2 4 6 5 6
5 6 2 3 2 12 10 9 23 6 7 2 8 12 10 9 9 10 12 13 11 9 9 8 9 8 8 8 8 8 8 7 7 5 4 2 2 2 3 3 3 2 1 1 2 2 3 4 4
13 15 8 8 7 4 3 10 10 3 3 5 10 10 9 9 8 8 11 11 12 10 9 9 9 9 8 8 8 7 7 4 4 5 3 2 2 1 3 2 3 3 3 2 3 3 3 5 6
5 10 11 5 4 1 5 8 9 6 3 2 9 9 9 9 9 11 10 11 10 9 9 9 10 8 8 8 7 7 6 6 5 5 4 2 2 2 3 3 3 3 4 3 4 3 4 4 5
9 3 5 3 6 6 6 6 7 4 7 6 8 10 11 9 11 10 10 10 8 8 8 9 8 9 8 8 7 6 6 6 5 4 4 3 2 1 2 3 4 5 6 6 6 4 6 7 7
5 6 5 4 4 3 1 5 1 4 3 9 8 9 10 11 11 11 9 8 9 8 8 8 8 9 8 7 7 7 6 6 5 4 3 3 2 4 4 4 4 4 4 5 5 6 7 7 7
6 12 11 3 3 2 2 7 3 4 6 7 7 8 9 9 8 8 8 9 9 8 8 8 8 8 7 7 7 7 6 5 4 4 4 4 3 2 1 3 3 4 4 4 5 7 8 8 8
Wind_Direction
300 267 259 282 244 214 257 238 85 91 8 62 3 29 45 48 21 110 117 93 120 129 136 144 146 148 140 132 128 125 129 131 131 129 125 121 117 114 115 116 109 109 132 102 99 90 71 82 66
303 301 249 270 243 245 256 164 135 175 73 97 67 27 293 81 73 116 98 157 123 131 143 142 146 146 140 136 134 132 132 129 130 128 128 126 122 118 112 108 101 86 109 100 100 118 88 72 97
260 258 256 196 227 241 324 49 159 80 94 156 122 14 25 81 115 132 108 151 129 134 149 139 147 147 145 143 146 140 131 129 130 129 125 120 114 106 105 80 150 143 115 102 79 132 126 102 48
246 188 260 255 248 248 351 82 93 106 143 352 77 114 77 351 88 108 148 138 134 141 133 139 147 146 139 144 141 131 135 142 142 141 137 137 133 105 86 50 231 159 114 96 81 86 131 192 249
252 244 243 214 250 266 107 62 357 152 158 166 231 146 98 69 94 116 146 138 138 131 129 140 141 146 146 147 140 139 148 154 159 149 135 134 128 129 119 93 88 108 100 92 75 71 60 26 346
257 285 237 233 245 242 114 141 213 247 161 94 152 143 87 127 133 137 147 142 145 125 139 142 148 146 148 150 148 150 157 165 154 147 146 151 150 150 148 132 122 122 118 94 63 41 3 329 306
268 193 255 264 250 141 155 131 200 225 161 155 9 129 126 158 133 143 156 144 143 132 136 144 156 159 158 158 157 160 165 164 162 158 158 162 156 155 151 151 148 147 142 136 93 13 336 316 308
310 323 256 236 268 309 79 79 7 337 139 69 18 351 168 138 138 149 152 134 152 139 140 148 163 163 159 163 164 165 164 172 173 170 166 164 166 166 159 164 183 179 192 214 257 279 282 291 296
281 279 262 236 211 76 102 193 126 11 345 327 119 52 84 126 147 148 147 145 163 147 144 161 159 163 167 160 170 169 172 168 168 172 176 168 198 184 174 172 162 188 229 276 291 286 285 286 284
216 228 269 8 39 38 95 318 145 174 200 209 122 92 104 140 163 161 172 170 154 161 144 157 167 172 157 178 159 171 170 171 182 187 179 203 216 143 145 157 160 197 220 260 258 268 271 272 256
201 220 36 63 28 10 347 328 357 273 258 199 188 165 175 169 182 182 188 174 154 181 161 153 173 164 172 192 153 157 148 168 184 182 202 186 132 109 86 108 150 203 183 297 247 257 244 243 264
264 227 274 35 73 281 231 357 321 237 258 54 46 75 154 183 190 198 192 173 152 181 173 168 174 188 193 156 136 155 128 103 85 66 45 71 77 72 81 222 187 209 137 183 298 315 290 264 254
230 269 241 280 132 243 310 250 253 278 264 231 117 50 206 180 212 213 210 185 168 169 180 175 184 196 147 116 102 91 97 97 116 107 99 102 99 81 43 31 23 14 18 13 337 312 322 331 323
4 333 283 254 217 236 201 246 202 230 238 249 228 188 210 242 232 226 219 226 165 163 169 171 183 127 115 120 112 115 109 133 105 83 83 52 82 70 57 40 24 18 26 4 349 328 318 312 315
351 299 255 224 198 248 95 265 232 217 170 198 231 229 226 220 216 237 228 208 189 157 147 124 92 122 106 98 96 101 116 104 103 101 92 85 66 68 57 58 32 40 17 341 334 326 322 322 311
237 200 268 3 144 148 182 250 96 184 162 207 204 207 208 223 209 238 230 180 230 123 125 117 116 107 108 116 111 109 105 104 106 104 88 75 62 46 42 49 36 34 358 337 329 318 324 318 315
207 253 207 253 192 132 194 264 88 141 164 217 204 200 196 208 196 210 203 185 207 133 129 128 133 115 122 122 120 110 111 107 110 98 92 93 72 51 37 33 9 28 350 338 329 330 332 328 319
202 216 243 238 200 220 213 256 256 197 190 224 196 210 203 197 206 182 190 192 187 137 135 137 140 136 127 118 107 98 98 100 95 91 87 66 65 51 35 12 21 13 355 340 350 344 330 313 299
234 268 258 240 172 184 227 250 259 239 203 206 211 217 224 203 204 179 179 167 170 124 121 136 136 143 132 123 118 110 134 118 95 90 75 70 57 43 31 29 12 11 9 344 328 321 326 319 322
241 251 258 298 156 182 261 263 264 252 233 205 213 216 217 184 153 133 140 170 161 135 137 133 145 147 140 131 128 125 133 102 115 102 95 79 66 47 42 30 14 13 3 345 346 5 333 306 344
235 217 211 214 156 228 330 274 231 243 237 233 227 208 188 177 168 168 188 182 148 136 140 144 147 147 111 110 102 85 79 77 90 120 101 97 85 62 60 35 24 8 2 352 344 350 349 326 329
247 221 228 238 112 232 175 278 226 251 228 204 212 188 192 198 177 159 163 171 154 143 128 125 120 109 116 121 120 137 143 145 119 113 109 113 102 68 57 45 33 9 8 3 2 7 343 328 306
221 30 338 191 145 54 219 311 247 213 242 205 211 194 188 190 177 162 158 165 139 121 117 113 112 111 115 114 116 115 101 103 111 107 113 115 113 112 99 85 30 44 34 14 11 0 347 328 307
113 86 54 43 101 243 217 168 266 226 226 227 193 184 171 152 161 152 155 129 119 111 114 117 120 117 109 109 112 118 123 126 119 115 115 111 128 130 125 83 50 55 88 65 27 345 330 330 327
165 128 170 211 212 232 164 170 248 303 308 231 193 167 152 150 159 158 149 136 132 132 133 132 130 125 123 116 111 113 119 120 123 124 116 109 82 58 47 29 5 352 110 176 255 270 308 303 301
196 184 192 227 205 240 326 213 245 206 62 83 138 142 137 147 156 152 139 138 140 147 149 138 137 132 129 123 118 114 116 114 109 106 102 94 98 83 52 7 339 314 303 245 243 309 261 291 295
201 230 255 325 133 214 217 267 290 167 162 158 136 135 149 153 147 145 146 144 152 152 151 143 136 135 133 128 126 123 114 111 116 114 111 100 70 39 38 3 328 319 312 299 289 284 270 262 273
195 304 167 195 210 226 239 250 242 207 194 187 163 157 161 156 151 158 154 152 148 150 141 132 133 137 134 131 130 124 122 119 120 118 104 77 50 22 6 0 2 359 0 355 338 330 311 304 299
171 233 217 175 255 256 233 255 9 15 190 187 185 161 160 156 159 157 150 144 142 135 131 135 134 133 133 130 124 126 134 135 134 129 123 100 56 48 33 22 12 2 344 338 327 318 310 299 296
298 218 234 230 206 244 38 274 56 3 332 164 181 150 145 145 147 148 141 133 133 136 137 138 136 134 142 140 139 147 144 147 149 140 113 93 71 51 20 11 357 334 327 328 320 310 299 293 294